Miscellaneous Local Product
Issued by NWS North Platte, NE

Home | Current Version | Previous Version | Text Only | Print | Product List | Glossary On
Versions: 1 2 3 4 5 6 7 8 9 10 11 12 13 14 15 16 17 18 19 20 21 22 23 24 25 26 27 28 29 30 31 32 33 34 35 36 37 38 39 40 41 42 43 44 45 46 47 48 49 50
000
AXUS43 KLBF 260610
MISLBF


WESTERN AND NORTH CENTRAL NEBRASKA HOURLY WEATHER ROUNDUP
NATIONAL WEATHER SERVICE NORTH PLATTE NE
1200 AM CST SUN FEB 26 2017

NOTE: "FAIR" INDICATES FEW OR NO CLOUDS BELOW 12,000 FEET WITH NO
SIGNIFICANT WEATHER AND/OR OBSTRUCTIONS TO VISIBILITY.

NOTE: STATIONS NOT REPORTING VARIABLES SUCH AS SKY/WEATHER OR
PRESSURE ARE PROVIDED BY RAWS AND APRS NETWORKS AND ARE NOT UNDER
NATIONAL WEATHER SERVICE QUALITY CONTROL.

...OBSERVATIONS IN AND NEAR THE EASTERN PANHANDLE OF NEBRASKA...

CITY           SKY/WX    TMP DP  RH WIND       PRES   REMARKS
PINE RIDGE     CLEAR     14   6  70 CALM      29.76R
CHADRON        CLEAR     13   3  64 SW9       29.78R WCI   1
ALLIANCE       CLEAR      5  -1  76 W12       29.76S WCI -11
SIDNEY         CLEAR     20   6  55 W15       29.81S WCI   6
CRESCENT LAKE    N/A     17   6  63 SW5         N/A  WCI  10
$$

...OBSERVATIONS IN NORTHERN NEBRASKA AND FAR SOUTHERN SOUTH DAKOTA...

CITY           SKY/WX    TMP DP  RH WIND       PRES   REMARKS
WINNER         FAIR      24  15  68 SW10      29.75F WCI  14
VALENTINE      CLEAR      8   3  80 SW5       29.75F WCI   0
THEDFORD       CLEAR     19  11  69 SW9       29.79F WCI   9
AINSWORTH      CLEAR     15   9  80 SW9       29.76F WCI   3
O`NEILL        CLOUDY    24  18  77 SW10      29.80S WCI  13
ORD            CLEAR     23  16  74 SW10      29.82S WCI  12
BROKEN BOW     CLEAR     18  14  84 W3        29.82S
VALENTINE NWR    N/A     17   9  70 SW9         N/A  WCI   6
BUTTE            N/A     21  17  84 SW6         N/A  WCI  13
HALSEY           N/A     18  10  69 SW5         N/A  WCI  11
CHAMBERS         N/A     22  14  71 NW3         N/A
EWING            N/A     19  16  86 SW6         N/A  WCI  11
$$

...OBSERVATIONS IN SOUTHWEST NEBRASKA AND FAR NORTHEAST COLORADO...

CITY           SKY/WX    TMP DP  RH WIND       PRES   REMARKS
HOLYOKE        FAIR      25  18  74 SW6       29.85R WCI  18
IMPERIAL       CLOUDY    27  15  61 SW8       29.85S WCI  19
OGALLALA       CLEAR     15  11  84 W8        29.84S WCI   4
NORTH PLATTE   CLEAR     18  12  77 W6        29.84F WCI  10
MCCOOK         CLOUDY    23  16  74 SW8       29.87F WCI  14
LEXINGTON      PTCLDY    27  17  68 W3        29.85F
STAPLETON        N/A     19  13  79 CALM        N/A
GOTHENBURG       N/A     26  15  61 CALM        N/A
CALLAWAY         N/A     20  14  77 W13         N/A  WCI   7
$$

...OBSERVATIONS IN CENTRAL LINCOLN COUNTY AREA...

CITY           SKY/WX    TMP DP  RH WIND       PRES   REMARKS
N.P. AIRPORT   CLEAR     18  12  77 W6        29.84F WCI  10
N.P. DOWNTOWN    N/A     18  11  74 W3          N/A
N.P. SOUTHEAST   N/A     23  15  70 CALM        N/A
N.P. HILLCREST   N/A     22  15  75 W3          N/A
$$

...SOME OBSERVATIONS FROM AROUND THE REGION...

CITY           SKY/WX    TMP DP  RH WIND       PRES   REMARKS
LARAMIE        MOCLDY    13   1  59 W24G31    29.70S WCI  -7
CHEYENNE       CLEAR     13   1  59 W8        29.75R WCI   2
DENVER         PTCLDY    22   6  50 S9        29.77F WCI  12
AKRON          PTCLDY    21  12  68 E7        29.82S WCI  12
SCOTTSBLUFF    CLEAR     13   5  70 NW6       29.80R WCI   4
RAPID CITY     PTCLDY    15  11  83 NW6       29.71F WCI   6
BISMARCK       CLOUDY    25  20  81 NW17      29.68R WCI  12
PIERRE         CLOUDY    26  20  77 W6        29.72F WCI  19
SIOUX FALLS    PTCLDY    23  18  81 SW5       29.78F WCI  17
OMAHA          MOCLDY    31  21  66 S7        29.89F WCI  24
GRAND ISLAND   CLOUDY    31  22  69 SW10      29.86F WCI  22
KANSAS CITY    CLEAR     31  14  49 S12       29.98F WCI  22
WICHITA        PTCLDY    30  20  66 SE8       29.98F WCI  22
OKLAHOMA CITY  PTCLDY    34  20  56 SE10      30.00F WCI  26
DALLAS         MOCLDY    43  27  53 SE7       30.05F
AMARILLO       CLEAR     37  22  54 S12       29.87F WCI  29
DODGE CITY     CLOUDY    35  14  42 SE13      29.87F WCI  26
HAYS           MOCLDY    34  13  41 VRB5      29.93S WCI  30
GOODLAND       CLEAR     13   7  77 CALM      29.85F
$$




USA.gov is the U.S. government's official web portal to all federal, state and local government web resources and services.